EJU12LE LPPR-LEMH

Flight info

Callsign EJU12LE
Flight time 1h 48m
Altitude 34000
Route BELDU DCT ADORO DCT FITSE DCT DGO/N0421F320 N725 ELSAP/N0412F300 N725 DIPES/N0421F330 N727 SARGO
Aircraft A320/M-SDE3FGHIRWY/LB1

Departure

Time 2026-04-16 12:12
Airport Francisco de Sá Carneiro Airport (LPPR)

Arrival

Time 2026-04-16 14:00
Airport Menorca Airport (LEMH)
Time Latitude Longitude Altitude Speed Heading
2026-04-16 11:31 41.24019 -8.67309 235 ft 0 kts 90°
2026-04-16 12:03 41.24019 -8.67326 236 ft 3 kts 94°
2026-04-16 12:03 41.24020 -8.67339 238 ft 0 kts 99°
2026-04-16 12:03 41.24020 -8.67343 236 ft 3 kts 101°
2026-04-16 12:04 41.24025 -8.67369 238 ft 3 kts 111°
2026-04-16 12:04 41.24033 -8.67393 238 ft 3 kts 123°
2026-04-16 12:04 41.24046 -8.67414 237 ft 3 kts 141°
2026-04-16 12:04 41.24061 -8.67426 240 ft 1 kts 168°
2026-04-16 12:05 41.24062 -8.67427 240 ft 0 kts 169°
2026-04-16 12:07 41.24051 -8.67424 239 ft 7 kts 169°
2026-04-16 12:08 41.24002 -8.67413 235 ft 6 kts 179°
2026-04-16 12:08 41.23968 -8.67438 235 ft 5 kts 213°
2026-04-16 12:08 41.23946 -8.67460 237 ft 3 kts 226°
2026-04-16 12:08 41.23937 -8.67504 235 ft 7 kts 263°
2026-04-16 12:09 41.23925 -8.67594 235 ft 12 kts 258°
2026-04-16 12:09 41.23904 -8.67730 237 ft 17 kts 258°
2026-04-16 12:09 41.23885 -8.67849 234 ft 5 kts 258°
2026-04-16 12:09 41.23891 -8.67882 234 ft 3 kts 311°
2026-04-16 12:10 41.23903 -8.67888 235 ft 1 kts 345°
2026-04-16 12:10 41.23906 -8.67888 235 ft 0 kts 349°
2026-04-16 12:11 41.23949 -8.67898 234 ft 19 kts 350°
2026-04-16 12:11 41.24332 -8.67997 236 ft 91 kts 348°
2026-04-16 12:11 41.25160 -8.68216 234 ft 147 kts 349°
2026-04-16 12:11 41.26285 -8.68511 517 ft 168 kts 346°
2026-04-16 12:12 41.27415 -8.68818 1309 ft 166 kts 347°
2026-04-16 12:12 41.28596 -8.69127 1733 ft 183 kts 347°
2026-04-16 12:12 41.29927 -8.69474 2030 ft 207 kts 347°
2026-04-16 12:12 41.31427 -8.69867 2374 ft 232 kts 347°
2026-04-16 12:13 41.33086 -8.70303 2830 ft 254 kts 348°
2026-04-16 12:13 41.34862 -8.70771 3575 ft 264 kts 348°
2026-04-16 12:13 41.36688 -8.71252 4415 ft 270 kts 347°
2026-04-16 12:13 41.38556 -8.71675 5294 ft 276 kts 355°
2026-04-16 12:14 41.40438 -8.71292 6105 ft 284 kts 19°
2026-04-16 12:14 41.42126 -8.69892 6920 ft 291 kts 44°
2026-04-16 12:14 41.43251 -8.67646 7687 ft 297 kts 70°
2026-04-16 12:14 41.43605 -8.64895 8469 ft 300 kts 89°
2026-04-16 12:15 41.43684 -8.62093 9267 ft 304 kts 89°
2026-04-16 12:15 41.43757 -8.59290 10047 ft 309 kts 89°
2026-04-16 12:15 41.43834 -8.56356 10621 ft 321 kts 89°
2026-04-16 12:15 41.43916 -8.53305 10842 ft 344 kts 89°
2026-04-16 12:16 41.44007 -8.50060 11337 ft 356 kts 89°
2026-04-16 12:16 41.44102 -8.46735 12017 ft 361 kts 89°
2026-04-16 12:16 41.44200 -8.43385 12732 ft 365 kts 89°
2026-04-16 12:16 41.44300 -8.39978 13440 ft 369 kts 89°
2026-04-16 12:17 41.44397 -8.36546 14124 ft 372 kts 89°
2026-04-16 12:17 41.44493 -8.33088 14724 ft 376 kts 89°
2026-04-16 12:17 41.44592 -8.29589 15331 ft 379 kts 89°
2026-04-16 12:17 41.44690 -8.26050 15967 ft 382 kts 89°
2026-04-16 12:18 41.44785 -8.22500 16574 ft 385 kts 89°
2026-04-16 12:18 41.44879 -8.18936 17179 ft 388 kts 90°
2026-04-16 12:18 41.44971 -8.15284 17795 ft 391 kts 90°
2026-04-16 12:18 41.45057 -8.11679 18386 ft 394 kts 90°
2026-04-16 12:19 41.45147 -8.07963 18923 ft 398 kts 90°
2026-04-16 12:19 41.45238 -8.04303 19429 ft 401 kts 89°
2026-04-16 12:19 41.45333 -8.00581 19938 ft 404 kts 89°
2026-04-16 12:19 41.45427 -7.96824 20429 ft 407 kts 89°
2026-04-16 12:20 41.45520 -7.93036 20932 ft 410 kts 89°
2026-04-16 12:20 41.45614 -7.89216 21412 ft 413 kts 89°
2026-04-16 12:20 41.45706 -7.85374 21899 ft 417 kts 89°
2026-04-16 12:20 41.45794 -7.81492 22339 ft 420 kts 89°
2026-04-16 12:21 41.45880 -7.77589 22831 ft 423 kts 89°
2026-04-16 12:21 41.45966 -7.73657 23311 ft 426 kts 89°
2026-04-16 12:21 41.46055 -7.69695 23767 ft 429 kts 89°
2026-04-16 12:21 41.46112 -7.67112 24008 ft 431 kts 89°
2026-04-16 12:22 41.46158 -7.64906 24209 ft 432 kts 89°
2026-04-16 12:22 41.46244 -7.60881 24607 ft 435 kts 89°
2026-04-16 12:22 41.46333 -7.56846 24986 ft 437 kts 89°
2026-04-16 12:22 41.46422 -7.52783 25346 ft 440 kts 89°
2026-04-16 12:23 41.46508 -7.48705 25721 ft 442 kts 89°
2026-04-16 12:23 41.46591 -7.44600 26074 ft 444 kts 89°
2026-04-16 12:23 41.46672 -7.40476 26427 ft 447 kts 89°
2026-04-16 12:23 41.46751 -7.36321 26779 ft 449 kts 89°
2026-04-16 12:24 41.46827 -7.32144 27136 ft 452 kts 89°
2026-04-16 12:24 41.46902 -7.27937 27474 ft 454 kts 89°
2026-04-16 12:24 41.46979 -7.23726 27795 ft 456 kts 89°
2026-04-16 12:24 41.47060 -7.19476 28134 ft 459 kts 89°
2026-04-16 12:25 41.47140 -7.15214 28472 ft 461 kts 89°
2026-04-16 12:25 41.47214 -7.10922 28802 ft 463 kts 89°
2026-04-16 12:25 41.47282 -7.06622 29135 ft 466 kts 89°
2026-04-16 12:25 41.47348 -7.02349 29461 ft 468 kts 89°
2026-04-16 12:26 41.47417 -6.98000 29788 ft 470 kts 89°
2026-04-16 12:26 41.47485 -6.93629 30106 ft 472 kts 89°
2026-04-16 12:26 41.47555 -6.89236 30371 ft 474 kts 89°
2026-04-16 12:26 41.47622 -6.84828 30620 ft 476 kts 89°
2026-04-16 12:27 41.47687 -6.80410 30870 ft 478 kts 89°
2026-04-16 12:27 41.47747 -6.75976 31126 ft 480 kts 89°
2026-04-16 12:27 41.47805 -6.71508 31399 ft 481 kts 89°
2026-04-16 12:27 41.47861 -6.67054 31757 ft 479 kts 89°
2026-04-16 12:28 41.47916 -6.62619 32107 ft 479 kts 89°
2026-04-16 12:28 41.47973 -6.58173 32450 ft 478 kts 89°
2026-04-16 12:28 41.48030 -6.53761 32787 ft 477 kts 89°
2026-04-16 12:28 41.48085 -6.49322 32932 ft 478 kts 89°
2026-04-16 12:29 41.48188 -6.40469 32932 ft 476 kts 89°
2026-04-16 12:29 41.48328 -6.31674 33328 ft 476 kts 84°
2026-04-16 12:30 41.48824 -6.27330 33665 ft 474 kts 75°
2026-04-16 12:30 41.49778 -6.23152 34010 ft 471 kts 66°
2026-04-16 12:30 41.51013 -6.19090 34316 ft 470 kts 65°
2026-04-16 12:30 41.52244 -6.15061 34593 ft 470 kts 65°
2026-04-16 12:31 41.53475 -6.11021 34845 ft 470 kts 66°
2026-04-16 12:31 41.54700 -6.06977 35106 ft 470 kts 66°
2026-04-16 12:31 41.55921 -6.02923 35352 ft 470 kts 66°
2026-04-16 12:31 41.57136 -5.98882 35601 ft 469 kts 66°
2026-04-16 12:32 41.58354 -5.94836 35834 ft 469 kts 66°
2026-04-16 12:32 41.59569 -5.90786 36077 ft 469 kts 66°
2026-04-16 12:32 41.60785 -5.86728 36186 ft 468 kts 66°
2026-04-16 12:32 41.61993 -5.82703 36203 ft 466 kts 66°
2026-04-16 12:33 41.64394 -5.74679 36203 ft 464 kts 66°
2026-04-16 12:33 41.66778 -5.66666 36205 ft 464 kts 66°
2026-04-16 12:34 41.69151 -5.58688 36211 ft 464 kts 66°
2026-04-16 12:34 41.71525 -5.50665 36212 ft 463 kts 66°
2026-04-16 12:35 41.73891 -5.42645 36214 ft 463 kts 66°
2026-04-16 12:35 41.76256 -5.34635 36210 ft 463 kts 66°
2026-04-16 12:36 41.78233 -5.27902 36213 ft 463 kts 66°
2026-04-16 12:36 41.80566 -5.19923 36216 ft 462 kts 66°
2026-04-16 12:37 41.82908 -5.11890 36215 ft 462 kts 66°
2026-04-16 12:37 41.85248 -5.03861 36223 ft 462 kts 66°
2026-04-16 12:38 41.87583 -4.95823 36225 ft 462 kts 66°
2026-04-16 12:38 41.89903 -4.87805 36229 ft 461 kts 66°
2026-04-16 12:39 41.92214 -4.79766 36226 ft 461 kts 66°
2026-04-16 12:39 41.94520 -4.71737 36229 ft 461 kts 66°
2026-04-16 12:40 41.96822 -4.63720 36226 ft 460 kts 66°
2026-04-16 12:40 41.99115 -4.55676 36228 ft 460 kts 66°
2026-04-16 12:41 42.01405 -4.47632 36232 ft 460 kts 66°
2026-04-16 12:41 42.03685 -4.39604 36229 ft 460 kts 66°
2026-04-16 12:42 42.05962 -4.31552 36228 ft 460 kts 66°
2026-04-16 12:42 42.08234 -4.23510 36229 ft 460 kts 66°
2026-04-16 12:43 42.10494 -4.15469 36225 ft 460 kts 67°
2026-04-16 12:43 42.12750 -4.07395 36226 ft 460 kts 67°
2026-04-16 12:44 42.15011 -3.99330 36229 ft 460 kts 67°
2026-04-16 12:44 42.17257 -3.91264 36232 ft 460 kts 67°
2026-04-16 12:45 42.19485 -3.83198 36237 ft 460 kts 67°
2026-04-16 12:45 42.21718 -3.75100 36245 ft 460 kts 67°
2026-04-16 12:46 42.23954 -3.67022 36253 ft 459 kts 68°
2026-04-16 12:46 42.26179 -3.58938 36256 ft 459 kts 68°
2026-04-16 12:47 42.28395 -3.50841 36257 ft 459 kts 68°
2026-04-16 12:47 42.30597 -3.42754 36251 ft 459 kts 68°
2026-04-16 12:48 42.32797 -3.34662 36243 ft 459 kts 68°
2026-04-16 12:48 42.34995 -3.26565 36236 ft 458 kts 68°
2026-04-16 12:49 42.37186 -3.18470 36224 ft 458 kts 69°
2026-04-16 12:49 42.39369 -3.10372 36211 ft 458 kts 69°
2026-04-16 12:50 42.41542 -3.02288 36210 ft 457 kts 69°
2026-04-16 12:50 42.43653 -2.94179 36207 ft 457 kts 74°
2026-04-16 12:51 42.44340 -2.85657 36206 ft 457 kts 94°
2026-04-16 12:51 42.43107 -2.77248 36204 ft 455 kts 107°
2026-04-16 12:52 42.41405 -2.69006 36202 ft 455 kts 106°
2026-04-16 12:52 42.39714 -2.60756 36202 ft 455 kts 106°
2026-04-16 12:53 42.38017 -2.52515 36204 ft 454 kts 107°
2026-04-16 12:53 42.36317 -2.44346 36205 ft 454 kts 107°
2026-04-16 12:54 42.34603 -2.36147 36203 ft 453 kts 107°
2026-04-16 12:54 42.32870 -2.27899 36203 ft 453 kts 107°
2026-04-16 12:55 42.31152 -2.19771 36201 ft 453 kts 107°
2026-04-16 12:55 42.29423 -2.11590 36199 ft 452 kts 107°
2026-04-16 12:56 42.27683 -2.03420 36195 ft 452 kts 107°
2026-04-16 12:56 42.25941 -1.95258 36195 ft 452 kts 107°
2026-04-16 12:57 42.24198 -1.87093 36195 ft 452 kts 107°
2026-04-16 12:57 42.22457 -1.78984 36193 ft 452 kts 107°
2026-04-16 12:58 42.20699 -1.70838 36196 ft 452 kts 107°
2026-04-16 12:58 42.18936 -1.62692 36195 ft 452 kts 107°
2026-04-16 12:59 42.17159 -1.54510 36199 ft 452 kts 107°
2026-04-16 13:00 42.14503 -1.42373 36198 ft 452 kts 107°
2026-04-16 13:00 42.12723 -1.34259 36199 ft 452 kts 107°
2026-04-16 13:01 42.10942 -1.26146 36202 ft 452 kts 107°
2026-04-16 13:01 42.09147 -1.18034 36197 ft 452 kts 107°
2026-04-16 13:02 42.07353 -1.09931 36196 ft 451 kts 107°
2026-04-16 13:02 42.05552 -1.01831 36196 ft 451 kts 107°
2026-04-16 13:03 42.03747 -0.93759 36198 ft 451 kts 107°
2026-04-16 13:03 42.01940 -0.85690 36198 ft 451 kts 107°
2026-04-16 13:04 42.00139 -0.77665 36197 ft 451 kts 107°
2026-04-16 13:04 41.98313 -0.69612 36204 ft 451 kts 107°
2026-04-16 13:05 41.96477 -0.61557 36208 ft 451 kts 107°
2026-04-16 13:05 41.94641 -0.53503 36215 ft 451 kts 107°
2026-04-16 13:06 41.92807 -0.45451 36211 ft 450 kts 107°
2026-04-16 13:06 41.90958 -0.37420 36211 ft 450 kts 107°
2026-04-16 13:07 41.89112 -0.29403 36207 ft 450 kts 107°
2026-04-16 13:07 41.87265 -0.21386 36188 ft 450 kts 106°
2026-04-16 13:08 41.85411 -0.13387 36196 ft 450 kts 107°
2026-04-16 13:08 41.83547 -0.05377 36179 ft 450 kts 107°
2026-04-16 13:09 41.81679 0.02627 36185 ft 450 kts 107°
2026-04-16 13:09 41.79810 0.10620 36190 ft 449 kts 107°
2026-04-16 13:10 41.77933 0.18615 36196 ft 449 kts 106°
2026-04-16 13:10 41.76051 0.26580 36181 ft 449 kts 107°
2026-04-16 13:11 41.74158 0.34545 36190 ft 449 kts 107°
2026-04-16 13:11 41.72281 0.42453 36178 ft 449 kts 106°
2026-04-16 13:12 41.70389 0.50408 36189 ft 449 kts 106°
2026-04-16 13:12 41.68483 0.58364 36190 ft 448 kts 107°
2026-04-16 13:13 41.66565 0.66307 36184 ft 449 kts 107°
2026-04-16 13:13 41.64598 0.74211 36185 ft 449 kts 108°
2026-04-16 13:14 41.62525 0.82092 36184 ft 449 kts 108°
2026-04-16 13:14 41.60441 0.89960 36180 ft 449 kts 108°
2026-04-16 13:15 41.58373 0.97818 36174 ft 449 kts 108°
2026-04-16 13:15 41.56311 1.05688 36175 ft 449 kts 108°
2026-04-16 13:16 41.54243 1.13545 36185 ft 449 kts 107°
2026-04-16 13:16 41.52636 1.20122 36185 ft 448 kts 105°
2026-04-16 13:17 41.50851 1.28087 36192 ft 448 kts 104°
2026-04-16 13:17 41.49063 1.36049 36191 ft 448 kts 105°
2026-04-16 13:18 41.46921 1.45282 36186 ft 449 kts 105°
2026-04-16 13:18 41.45355 1.51935 36193 ft 448 kts 105°
2026-04-16 13:19 41.43505 1.59813 36199 ft 448 kts 105°
2026-04-16 13:19 41.41642 1.67728 36201 ft 447 kts 105°
2026-04-16 13:20 41.39703 1.75608 36211 ft 448 kts 106°
2026-04-16 13:20 41.37691 1.83458 36214 ft 447 kts 107°
2026-04-16 13:21 41.35675 1.91289 36214 ft 447 kts 106°
2026-04-16 13:21 41.33693 1.99067 36213 ft 447 kts 106°
2026-04-16 13:22 41.31685 2.06952 36219 ft 447 kts 106°
2026-04-16 13:22 41.30045 2.14853 36221 ft 445 kts 99°
2026-04-16 13:23 41.28735 2.22905 36216 ft 445 kts 99°
2026-04-16 13:23 41.27412 2.30934 36223 ft 445 kts 99°
2026-04-16 13:24 41.26073 2.38975 36223 ft 446 kts 99°
2026-04-16 13:24 41.24718 2.47025 36225 ft 445 kts 99°
2026-04-16 13:25 41.23367 2.55058 36221 ft 445 kts 99°
2026-04-16 13:25 41.22032 2.63024 36219 ft 445 kts 99°
2026-04-16 13:26 41.20668 2.71082 36222 ft 444 kts 99°
2026-04-16 13:26 41.19321 2.79038 36222 ft 444 kts 99°
2026-04-16 13:27 41.17964 2.87022 36221 ft 444 kts 99°
2026-04-16 13:27 41.16598 2.94996 36221 ft 443 kts 100°
2026-04-16 13:27 41.15598 2.98907 35873 ft 453 kts 114°
2026-04-16 13:28 41.13806 3.02361 35260 ft 458 kts 128°
2026-04-16 13:28 41.11707 3.05543 34665 ft 458 kts 128°
2026-04-16 13:28 41.09607 3.08730 34055 ft 458 kts 128°
2026-04-16 13:28 41.07520 3.11918 33382 ft 458 kts 128°
2026-04-16 13:29 41.05487 3.15041 32731 ft 459 kts 127°
2026-04-16 13:29 41.05444 3.15108 32723 ft 459 kts 127°
2026-04-16 13:29 41.04530 3.16539 32393 ft 460 kts 127°
2026-04-16 13:30 41.02456 3.19780 31761 ft 461 kts 127°
2026-04-16 13:30 41.00388 3.22968 31146 ft 462 kts 127°
2026-04-16 13:30 40.98259 3.26220 30528 ft 460 kts 128°
2026-04-16 13:30 40.96168 3.29399 29861 ft 458 kts 128°
2026-04-16 13:31 40.94077 3.32572 29167 ft 455 kts 128°
2026-04-16 13:31 40.92005 3.35719 28501 ft 453 kts 128°
2026-04-16 13:31 40.89945 3.38855 27841 ft 450 kts 128°
2026-04-16 13:31 40.87892 3.41983 27193 ft 448 kts 128°
2026-04-16 13:32 40.85863 3.45075 26566 ft 445 kts 128°
2026-04-16 13:32 40.83842 3.48152 25945 ft 442 kts 128°
2026-04-16 13:32 40.81832 3.51205 25343 ft 440 kts 128°
2026-04-16 13:32 40.79823 3.54252 24750 ft 437 kts 129°
2026-04-16 13:33 40.77841 3.57256 24169 ft 434 kts 129°
2026-04-16 13:33 40.75864 3.60252 23564 ft 431 kts 129°
2026-04-16 13:33 40.73899 3.63227 22891 ft 428 kts 129°
2026-04-16 13:33 40.71956 3.66166 22236 ft 426 kts 129°
2026-04-16 13:34 40.70003 3.69117 21584 ft 424 kts 129°
2026-04-16 13:34 40.68066 3.72041 20954 ft 422 kts 129°
2026-04-16 13:34 40.66139 3.74948 20337 ft 420 kts 129°
2026-04-16 13:34 40.64220 3.77842 19738 ft 418 kts 129°
2026-04-16 13:35 40.62305 3.80721 19146 ft 417 kts 130°
2026-04-16 13:35 40.60402 3.83580 18750 ft 410 kts 130°
2026-04-16 13:35 40.58548 3.86363 18518 ft 399 kts 130°
2026-04-16 13:35 40.56729 3.89092 18077 ft 394 kts 130°
2026-04-16 13:36 40.54927 3.91789 17568 ft 392 kts 130°
2026-04-16 13:36 40.53153 3.94444 17066 ft 389 kts 130°
2026-04-16 13:36 40.51259 3.97037 16560 ft 388 kts 138°
2026-04-16 13:36 40.49082 3.99037 16066 ft 387 kts 150°
2026-04-16 13:37 40.46593 4.00411 15569 ft 387 kts 163°
2026-04-16 13:37 40.44011 4.01334 15064 ft 385 kts 165°
2026-04-16 13:37 40.41426 4.02245 14571 ft 384 kts 164°
2026-04-16 13:37 40.38848 4.03156 13948 ft 386 kts 164°
2026-04-16 13:38 40.36260 4.04070 13556 ft 380 kts 164°
2026-04-16 13:38 40.33723 4.04964 13045 ft 377 kts 164°
2026-04-16 13:38 40.31200 4.05852 12541 ft 374 kts 165°
2026-04-16 13:38 40.28675 4.06373 12258 ft 364 kts 176°
2026-04-16 13:39 40.26178 4.06576 12004 ft 354 kts 176°
2026-04-16 13:39 40.23744 4.06777 11762 ft 347 kts 176°
2026-04-16 13:39 40.21370 4.06970 11514 ft 339 kts 176°
2026-04-16 13:39 40.19039 4.07159 11272 ft 331 kts 176°
2026-04-16 13:40 40.16762 4.07343 11034 ft 324 kts 176°
2026-04-16 13:40 40.14539 4.07520 10906 ft 314 kts 176°
2026-04-16 13:40 40.12383 4.07691 10725 ft 306 kts 176°
2026-04-16 13:40 40.10275 4.07857 10430 ft 304 kts 176°
2026-04-16 13:41 40.08164 4.08024 10187 ft 302 kts 176°
2026-04-16 13:41 40.06064 4.08191 10043 ft 302 kts 176°
2026-04-16 13:41 40.03960 4.08356 9627 ft 306 kts 176°
2026-04-16 13:41 40.01836 4.08523 9342 ft 302 kts 176°
2026-04-16 13:42 39.99753 4.08688 9082 ft 298 kts 177°
2026-04-16 13:42 39.97687 4.08852 8750 ft 296 kts 177°
2026-04-16 13:42 39.95639 4.09013 8383 ft 294 kts 177°
2026-04-16 13:42 39.93602 4.09170 8028 ft 293 kts 178°
2026-04-16 13:43 39.91564 4.09329 7644 ft 294 kts 178°
2026-04-16 13:43 39.89521 4.09489 7264 ft 294 kts 178°
2026-04-16 13:43 39.87478 4.09648 6940 ft 293 kts 178°
2026-04-16 13:43 39.85459 4.09812 6613 ft 289 kts 178°
2026-04-16 13:44 39.83464 4.09996 6374 ft 282 kts 177°
2026-04-16 13:44 39.81550 4.10172 6241 ft 270 kts 177°
2026-04-16 13:44 39.79719 4.10337 6114 ft 258 kts 179°
2026-04-16 13:44 39.77957 4.10370 5953 ft 249 kts 182°
2026-04-16 13:45 39.76242 4.10351 5680 ft 246 kts 182°
2026-04-16 13:45 39.74528 4.10328 5356 ft 245 kts 182°
2026-04-16 13:45 39.72828 4.10307 5040 ft 244 kts 182°
2026-04-16 13:45 39.71129 4.10282 4717 ft 243 kts 182°
2026-04-16 13:46 39.69436 4.10247 4371 ft 244 kts 181°
2026-04-16 13:46 39.67786 4.10674 4035 ft 242 kts 150°
2026-04-16 13:46 39.66577 4.12105 3799 ft 232 kts 115°
2026-04-16 13:46 39.66128 4.14020 3650 ft 217 kts 86°
2026-04-16 13:47 39.66389 4.15875 3495 ft 203 kts 59°
2026-04-16 13:47 39.67186 4.17301 3348 ft 190 kts 37°
2026-04-16 13:47 39.68287 4.18127 3197 ft 183 kts 15°
2026-04-16 13:47 39.69518 4.18435 3067 ft 176 kts
2026-04-16 13:48 39.70694 4.18675 2917 ft 166 kts
2026-04-16 13:48 39.71798 4.18901 2831 ft 154 kts
2026-04-16 13:48 39.72826 4.19111 2701 ft 147 kts
2026-04-16 13:48 39.73846 4.19319 2534 ft 149 kts
2026-04-16 13:49 39.74870 4.19529 2349 ft 149 kts
2026-04-16 13:49 39.75891 4.19738 2161 ft 147 kts
2026-04-16 13:49 39.76902 4.19945 1969 ft 147 kts
2026-04-16 13:49 39.77918 4.20153 1765 ft 148 kts
2026-04-16 13:50 39.78928 4.20360 1569 ft 144 kts
2026-04-16 13:50 39.79875 4.20555 1374 ft 134 kts
2026-04-16 13:50 39.80780 4.20741 1190 ft 130 kts
2026-04-16 13:50 39.81679 4.20925 1014 ft 132 kts
2026-04-16 13:51 39.82580 4.21110 857 ft 131 kts
2026-04-16 13:51 39.83477 4.21289 723 ft 130 kts
2026-04-16 13:51 39.84366 4.21476 508 ft 128 kts
2026-04-16 13:51 39.85244 4.21656 319 ft 126 kts
2026-04-16 13:52 39.86096 4.21835 568 ft 128 kts
2026-04-16 13:52 39.87006 4.22038 1131 ft 135 kts
2026-04-16 13:52 39.87967 4.22266 1715 ft 142 kts
2026-04-16 13:52 39.88951 4.22515 2312 ft 151 kts
2026-04-16 13:53 39.90006 4.22797 2977 ft 159 kts
2026-04-16 13:53 39.91134 4.23105 3510 ft 174 kts
2026-04-16 13:53 39.92403 4.22908 3434 ft 198 kts 332°
2026-04-16 13:53 39.93396 4.21651 3296 ft 206 kts 300°
2026-04-16 13:54 39.93633 4.19802 3062 ft 214 kts 263°
2026-04-16 13:54 39.92946 4.18051 3016 ft 228 kts 228°
2026-04-16 13:54 39.91562 4.17027 3002 ft 237 kts 197°
2026-04-16 13:54 39.89926 4.16599 3010 ft 241 kts 191°
2026-04-16 13:55 39.88261 4.16287 2931 ft 241 kts 189°
2026-04-16 13:55 39.86600 4.15996 2805 ft 241 kts 189°
2026-04-16 13:55 39.84940 4.15698 2662 ft 240 kts 189°
2026-04-16 13:55 39.83295 4.15392 2520 ft 235 kts 189°
2026-04-16 13:56 39.81717 4.15097 2505 ft 223 kts 189°
2026-04-16 13:56 39.80228 4.14808 2510 ft 208 kts 190°
2026-04-16 13:56 39.78823 4.14569 2646 ft 199 kts 179°
2026-04-16 13:56 39.77513 4.15042 3030 ft 196 kts 147°
2026-04-16 13:57 39.76825 4.15787 3177 ft 195 kts 127°
2026-04-16 13:57 39.76198 4.17820 2945 ft 172 kts 83°
2026-04-16 13:57 39.76338 4.18796 2790 ft 157 kts 60°
2026-04-16 13:58 39.77826 4.20147 2327 ft 131 kts
2026-04-16 13:58 39.79016 4.20379 1924 ft 130 kts
2026-04-16 13:58 39.79617 4.20492 1741 ft 129 kts
2026-04-16 13:58 39.80495 4.20656 1527 ft 130 kts
2026-04-16 13:59 39.81381 4.20856 1287 ft 130 kts
2026-04-16 13:59 39.82276 4.21051 999 ft 130 kts
2026-04-16 13:59 39.83171 4.21226 778 ft 129 kts
2026-04-16 13:59 39.84053 4.21423 565 ft 128 kts
2026-04-16 14:00 39.84933 4.21592 377 ft 128 kts
2026-04-16 14:00 39.85766 4.21762 299 ft 100 kts 10°
2026-04-16 14:00 39.86167 4.21847 303 ft 24 kts
2026-04-16 14:00 39.86225 4.21877 302 ft 9 kts 65°
2026-04-16 14:01 39.86216 4.21937 301 ft 7 kts 101°
2026-04-16 14:01 39.86206 4.22013 299 ft 10 kts 99°
2026-04-16 14:01 39.86194 4.22115 298 ft 13 kts 99°
2026-04-16 14:01 39.86188 4.22246 291 ft 15 kts 56°
2026-04-16 14:02 39.86277 4.22277 288 ft 10 kts
2026-04-16 14:02 39.86357 4.22293 288 ft 13 kts 10°
2026-04-16 14:02 39.86440 4.22311 288 ft 10 kts
2026-04-16 14:02 39.86520 4.22327 288 ft 8 kts
2026-04-16 14:03 39.86568 4.22337 294 ft 7 kts
2026-04-16 14:03 39.86580 4.22386 291 ft 6 kts 101°
2026-04-16 14:03 39.86575 4.22428 286 ft 3 kts 98°
2026-04-16 14:03 39.86575 4.22429 286 ft 0 kts 98°